Location: Düngen
(52.0952°N, 10.0219°E)
Time: 15:49:52
(UTC+00:00)

SL-12 R/B(2) - Pass Details

Date: 11 March 2026
Orbit: 1169 x 2180 km, 63.4° (Epoch: 14 April)

Event Time Altitude Azimuth Distance (km) Brightness Sun altitude
Rises 18:02:32 0° 199° (SSW) 4,177 7.0 -7.8°
Reaches altitude 10° 18:05:10 10° 195° (SSW) 3,289 6.4 -8.2°
Maximum altitude 18:12:51 54° 120° (ESE) 1,720 4.5 -9.3°
Drops below altitude 10° 18:22:12 10° 47° (NE) 3,987 6.3 -10.8°
Sets 18:25:43 0° 44° (NE) 5,126 6.9 -11.3°
